Home   Weather   Paysandú   Past weeks

Flag for Uruguay Past Weather in Paysandú, Uruguay — Yesterday and Last 2 Weeks

Now
77 °F

Sunny.


Feels Like: 78 °F
Forecast: 49 / 79 °F
Wind: 8 mph from Northeast

Location: Buenos Aires Airport

Current Time: Dec 9, 2016 at 4:41:35 pm

Latest Report: Dec 9, 2016 at 4:00 pm


Visibility: 10 mi

Pressure: 29.83 "Hg

Humidity: 34%

Dew Point: 46 °F

Location of PaysandúLocation

Past Weather in Paysandú — Graph

°F

Paysandú Temperature Yesterday

Maximum temperature yesterday: 79 °F (at 12:00 am)
Minimum temperature yesterday: 63 °F (at 6:00 am)
Average temperature yesterday: 68 °F

High & Low Weather Summary for the Past Weeks

 TemperatureHumidityPressure
High88 °F (Dec 5, 4:00 pm)94% (Nov 26, 2:00 pm)30.21 "Hg (Nov 26, 2:00 pm)
Low63 °F (Dec 8, 6:00 am)18% (Dec 6, 7:00 pm)29.56 "Hg (Nov 26, 6:00 pm)
Average74 °F61%29.90 "Hg
* Reported Nov 24 3:00 pm — Dec 9 3:00 pm, Paysandú, Weather by CustomWeather, © 2016

Note: Actual official high and low records may vary slightly from our data, if they occured in-between our weather recording intervals... More about our weather records

Advertising

Paysandú Weather History for the Previous 24 Hours

Scroll right to see more
 ConditionsComfort  
Time TempWeatherWind HumidityBarometerVisibility
3:00 pm
Fri, Dec 9
75 °FSunny.8 mph34%29.86 "Hg10 mi
2:00 pm73 °FSunny.7 mph41%29.89 "Hg10 mi
1:00 pm72 °FSunny.7 mph44%29.92 "Hg10 mi
12:00 pm68 °FSunny.7 mph53%29.95 "Hg10 mi
11:00 am68 °FSunny.8 mph53%29.98 "Hg10 mi
10:00 am66 °FSunny.7 mph52%29.98 "Hg10 mi
9:00 am66 °FSunny.7 mph60%29.98 "Hg10 mi
8:00 am64 °FSunny.8 mph60%29.98 "Hg10 mi
7:00 am63 °FSunny.9 mph64%29.95 "Hg10 mi
6:00 am63 °FPassing clouds.9 mph68%29.95 "HgN/A
5:00 am63 °FPassing clouds.7 mph68%29.95 "HgN/A
4:00 am63 °FPassing clouds.7 mph68%29.95 "HgN/A
3:00 am64 °FPassing clouds.8 mph64%29.95 "HgN/A
2:00 am64 °FPassing clouds.12 mph68%29.95 "HgN/A
1:00 am66 °FPassing clouds.13 mph64%29.98 "HgN/A
12:00 am66 °FPassing clouds.10 mph60%29.98 "HgN/A
11:00 pm
Thu, Dec 8
66 °FPassing clouds.10 mph56%29.98 "HgN/A
10:00 pm68 °FClear.10 mph56%29.98 "Hg10 mi
9:00 pm68 °FPassing clouds.9 mph56%30.01 "HgN/A
8:00 pm68 °FClear.12 mph56%29.98 "Hg10 mi
7:00 pm68 °FSunny.13 mph56%29.95 "Hg10 mi
6:00 pm70 °FPassing clouds.13 mph53%29.95 "HgN/A
5:00 pm72 °FSunny.14 mph41%29.95 "Hg10 mi
4:00 pm75 °FSunny.8 mph29%29.95 "Hg10 mi
Weather by CustomWeather, © 2016

See weather overviewHow to use our weather pages